When you browse on this site, cookies collect data to enhance your experience and personalize the content and advertising you see.
Visit our Privacy Policy to learn more. By continuing to use the site, you agree to this use of cookies and data.
  • In Hungary
  • List of Countries
  • For 7 days
  • Water Temperature
  • Satellite Maps
  • Weather Map
  • News
  • Weather Widgets
  • user-avatar
    Login

    Hourly Weather Novelda

    Today, 17 November, Saturday

    Time Temperature Precipitation Wind Pressure Humidity
    00:00 +15°C° 0 mm 2 mps 737 mmHg 93%
    01:00 +15°C° 0.1 mm 2 mps 737 mmHg 92%
    02:00 +15°C° 0.1 mm 2 mps 737 mmHg 92%
    03:00 +15°C° 0.1 mm 2 mps 737 mmHg 91%
    04:00 +14°C° 0.2 mm 2 mps 737 mmHg 91%
    05:00 +14°C° 0.2 mm 2 mps 737 mmHg 91%
    06:00 +13°C° 0.2 mm 3 mps 736 mmHg 91%
    07:00 +14°C° 0.1 mm 3 mps 736 mmHg 88%
    08:00 +14°C° 0.1 mm 3 mps 736 mmHg 84%
    09:00 +16°C° 0.1 mm 3 mps 736 mmHg 80%
    10:00 +17°C° 0 mm 3 mps 736 mmHg 76%
    11:00 +17°C° 0 mm 3 mps 736 mmHg 72%
    12:00 +18°C° 0 mm 3 mps 736 mmHg 68%
    13:00 +18°C° 0 mm 3 mps 735 mmHg 67%
    14:00 +18°C° 0 mm 4 mps 735 mmHg 67%
    15:00 +18°C° 0 mm 4 mps 735 mmHg 67%
    16:00 +17°C° 0 mm 3 mps 735 mmHg 72%
    17:00 +16°C° 0 mm 3 mps 735 mmHg 76%
    18:00 +14°C° 0 mm 3 mps 735 mmHg 81%
    19:00 +14°C° 0 mm 3 mps 735 mmHg 83%
    20:00 +14°C° 0 mm 2 mps 734 mmHg 86%
    21:00 +14°C° 0 mm 2 mps 734 mmHg 88%
    22:00 +14°C° 0 mm 2 mps 734 mmHg 89%
    23:00 +13°C° 0 mm 2 mps 733 mmHg 90%

    Tomorrow, 18 November, Sunday

    Time Temperature Precipitation Wind Pressure Humidity
    00:00 +13°C° 0 mm 2 mps 733 mmHg 92%
    01:00 +13°C° 0 mm 2 mps 733 mmHg 92%
    02:00 +13°C° 0 mm 2 mps 732 mmHg 92%
    03:00 +13°C° 0 mm 2 mps 732 mmHg 92%
    04:00 +13°C° 0 mm 2 mps 731 mmHg 91%
    05:00 +13°C° 0 mm 2 mps 731 mmHg 90%
    06:00 +12°C° 0 mm 3 mps 731 mmHg 89%
    07:00 +12°C° 0.1 mm 3 mps 731 mmHg 87%
    08:00 +13°C° 0.1 mm 4 mps 731 mmHg 84%
    09:00 +13°C° 0.1 mm 4 mps 731 mmHg 82%
    10:00 +14°C° 0.2 mm 4 mps 730 mmHg 81%
    11:00 +14°C° 0.2 mm 4 mps 730 mmHg 79%
    12:00 +15°C° 0.2 mm 5 mps 730 mmHg 77%
    13:00 +15°C° 0.4 mm 5 mps 729 mmHg 78%
    14:00 +14°C° 0.4 mm 5 mps 729 mmHg 78%
    15:00 +14°C° 0.4 mm 6 mps 729 mmHg 79%
    16:00 +14°C° 0.6 mm 5 mps 729 mmHg 82%
    17:00 +13°C° 0.6 mm 5 mps 728 mmHg 84%
    18:00 +13°C° 0.6 mm 5 mps 728 mmHg 87%
    19:00 +13°C° 0.4 mm 5 mps 728 mmHg 87%
    20:00 +13°C° 0.4 mm 5 mps 728 mmHg 87%
    21:00 +13°C° 0.4 mm 4 mps 728 mmHg 87%
    22:00 +13°C° 0.3 mm 4 mps 728 mmHg 88%
    23:00 +13°C° 0.3 mm 4 mps 727 mmHg 89%

    Day after tomorrow, 19 November, Monday

    Time Temperature Precipitation Wind Pressure Humidity
    00:00 +12°C° 0.3 mm 4 mps 727 mmHg 89%
    01:00 +12°C° 0.3 mm 3 mps 727 mmHg 89%
    02:00 +12°C° 0.3 mm 3 mps 726 mmHg 89%
    03:00 +12°C° 0.3 mm 3 mps 726 mmHg 90%
    04:00 +12°C° 0.5 mm 3 mps 726 mmHg 89%
    05:00 +12°C° 0.5 mm 3 mps 725 mmHg 89%
    06:00 +12°C° 0.5 mm 3 mps 725 mmHg 89%
    07:00 +12°C° 1.8 mm 3 mps 725 mmHg 89%
    08:00 +12°C° 1.8 mm 3 mps 725 mmHg 89%
    09:00 +12°C° 1.8 mm 4 mps 725 mmHg 90%
    10:00 +12°C° 2.9 mm 5 mps 725 mmHg 89%
    11:00 +12°C° 2.9 mm 5 mps 724 mmHg 89%
    12:00 +11°C° 2.9 mm 6 mps 724 mmHg 88%
    13:00 +11°C° 2.4 mm 6 mps 724 mmHg 88%
    14:00 +11°C° 2.4 mm 6 mps 724 mmHg 87%
    15:00 +11°C° 2.4 mm 6 mps 723 mmHg 87%
    16:00 +11°C° 2.4 mm 7 mps 724 mmHg 87%
    17:00 +11°C° 2.4 mm 7 mps 724 mmHg 87%
    18:00 +11°C° 2.4 mm 7 mps 724 mmHg 87%
    19:00 +11°C° 0.7 mm 7 mps 724 mmHg 85%
    20:00 +11°C° 0.7 mm 6 mps 725 mmHg 84%
    21:00 +11°C° 0.7 mm 6 mps 725 mmHg 82%
    22:00 +12°C° 0.2 mm 5 mps 726 mmHg 82%
    23:00 +12°C° 0.2 mm 5 mps 726 mmHg 82%

    20 November, Tuesday

    Time Temperature Precipitation Wind Pressure Humidity
    00:00 +12°C° 0.2 mm 4 mps 726 mmHg 83%
    01:00 +12°C° 0 mm 4 mps 726 mmHg 83%
    02:00 +11°C° 0 mm 4 mps 726 mmHg 83%
    03:00 +10°C° 0 mm 5 mps 726 mmHg 83%
    04:00 +11°C° 0 mm 4 mps 726 mmHg 82%
    05:00 +11°C° 0 mm 4 mps 726 mmHg 82%
    06:00 +11°C° 0 mm 4 mps 726 mmHg 81%
    07:00 +11°C° 0 mm 4 mps 726 mmHg 77%
    08:00 +12°C° 0 mm 5 mps 727 mmHg 72%
    09:00 +13°C° 0 mm 5 mps 727 mmHg 68%
    10:00 +14°C° 0 mm 5 mps 727 mmHg 63%
    11:00 +15°C° 0 mm 5 mps 727 mmHg 58%
    12:00 +16°C° 0 mm 5 mps 727 mmHg 53%
    13:00 +16°C° 0 mm 5 mps 727 mmHg 51%
    14:00 +18°C° 0 mm 4 mps 727 mmHg 50%
    15:00 +18°C° 0 mm 4 mps 726 mmHg 48%
    16:00 +17°C° 0.3 mm 4 mps 727 mmHg 55%
    17:00 +15°C° 0.3 mm 4 mps 727 mmHg 63%
    18:00 +13°C° 0.3 mm 4 mps 727 mmHg 70%
    19:00 +13°C° 0.2 mm 4 mps 727 mmHg 71%
    20:00 +13°C° 0.2 mm 4 mps 728 mmHg 71%
    21:00 +13°C° 0.2 mm 3 mps 728 mmHg 72%
    22:00 +12°C° 0 mm 3 mps 728 mmHg 73%
    23:00 +12°C° 0 mm 4 mps 729 mmHg 73%

    21 November, Wednesday

    Time Temperature Precipitation Wind Pressure Humidity
    00:00 +11°C° 0 mm 4 mps 729 mmHg 74%
    01:00 +11°C° 0 mm 3 mps 729 mmHg 75%
    02:00 +11°C° 0 mm 3 mps 729 mmHg 75%
    03:00 +10°C° 0 mm 3 mps 729 mmHg 76%
    04:00 +10°C° 0 mm 3 mps 730 mmHg 77%
    05:00 +10°C° 0 mm 2 mps 730 mmHg 77%
    06:00 +9°C° 0 mm 2 mps 730 mmHg 78%
    07:00 +10°C° 0 mm 2 mps 731 mmHg 73%
    08:00 +12°C° 0 mm 2 mps 731 mmHg 68%
    09:00 +14°C° 0 mm 2 mps 732 mmHg 64%
    10:00 +14°C° 0 mm 3 mps 732 mmHg 59%
    11:00 +15°C° 0 mm 4 mps 732 mmHg 55%
    12:00 +17°C° 0 mm 4 mps 732 mmHg 50%
    13:00 +16°C° 0 mm 5 mps 732 mmHg 47%
    14:00 +17°C° 0 mm 5 mps 732 mmHg 44%
    15:00 +17°C° 0 mm 5 mps 732 mmHg 41%
    16:00 +15°C° 0 mm 5 mps 733 mmHg 46%
    17:00 +14°C° 0 mm 4 mps 733 mmHg 51%
    18:00 +12°C° 0 mm 3 mps 734 mmHg 56%
    19:00 +12°C° 0 mm 3 mps 734 mmHg 58%
    20:00 +12°C° 0 mm 2 mps 735 mmHg 60%
    21:00 +12°C° 0 mm 2 mps 735 mmHg 62%
    22:00 +10°C° 0 mm 2 mps 735 mmHg 63%
    23:00 +10°C° 0 mm 2 mps 735 mmHg 64%

    22 November, Thursday

    Time Temperature Precipitation Wind Pressure Humidity
    00:00 +10°C° 0 mm 2 mps 736 mmHg 64%
    01:00 +10°C° 0 mm 2 mps 735 mmHg 65%
    02:00 +9°C° 0 mm 2 mps 735 mmHg 66%
    03:00 +9°C° 0 mm 2 mps 735 mmHg 67%
    04:00 +9°C° 0 mm 2 mps 736 mmHg 67%
    05:00 +9°C° 0 mm 2 mps 736 mmHg 68%
    06:00 +9°C° 0 mm 1 mps 736 mmHg 68%
    07:00 +10°C° 0 mm 2 mps 736 mmHg 65%
    08:00 +12°C° 0 mm 2 mps 737 mmHg 61%
    09:00 +13°C° 0 mm 2 mps 737 mmHg 58%
    10:00 +14°C° 0 mm 2 mps 737 mmHg 59%
    11:00 +15°C° 0 mm 2 mps 737 mmHg 60%
    12:00 +16°C° 0 mm 2 mps 737 mmHg 61%
    13:00 +16°C° 0 mm 2 mps 737 mmHg 60%
    14:00 +16°C° 0 mm 2 mps 737 mmHg 58%
    15:00 +17°C° 0 mm 2 mps 737 mmHg 57%
    16:00 +15°C° 0 mm 2 mps 737 mmHg 64%
    17:00 +14°C° 0 mm 2 mps 738 mmHg 70%
    18:00 +13°C° 0 mm 2 mps 738 mmHg 77%
    19:00 +13°C° 0 mm 2 mps 738 mmHg 80%
    20:00 +12°C° 0 mm 2 mps 739 mmHg 83%
    21:00 +12°C° 0 mm 2 mps 739 mmHg 85%
    22:00 +10°C° 0 mm 2 mps 739 mmHg 86%
    23:00 +11°C° 0 mm 1 mps 739 mmHg 86%
    Show more